Overview Statistics Trail Chart Weather Telemetry Raw packets
 

This is the latest recevied weather packets stored in our database for station/object SP9MUF-14. If no packets are shown the sender has not sent any weather packets the latest 10 day(s).

<< 1 2 3 4 5 6 >>
Time Temp. Humidity Pressure Rain* Wind** Luminosity Snow
1788624513 20.56° C 46% 1016.1 hPa 0 mm - 43 W/m² -
1788624223 20.56° C 46% 1016 hPa 0 mm - 33 W/m² -
1788623909 20.56° C 45% 1016 hPa 0 mm - 46 W/m² -
1788623607 20.56° C 46% 1015.9 hPa 0 mm - 59 W/m² -
1788623305 20.56° C 47% 1015.9 hPa 0 mm - 61 W/m² -
1788623004 20.56° C 47% 1015.9 hPa 0 mm - 48 W/m² -
1788622700 20.56° C 46% 1015.8 hPa 0 mm - 57 W/m² -
1788622398 20.56° C 46% 1015.9 hPa 0 mm - 66 W/m² -
1788622096 21.67° C 46% 1015.7 hPa 0 mm - 65 W/m² -
1788621794 21.67° C 47% 1015.7 hPa 0 mm - 64 W/m² -
1788621190 20.56° C 46% 1015.5 hPa 0 mm - 79 W/m² -
1788620888 21.67° C 45% 1015.6 hPa 0 mm - 66 W/m² -
1788620283 21.67° C 45% 1015.5 hPa 0 mm - 84 W/m² -
1788619981 21.67° C 45% 1015.5 hPa 0 mm - 143 W/m² -
1788619679 21.67° C 44% 1015.6 hPa 0 mm - 152 W/m² -
1788619377 20.56° C 46% 1015.5 hPa 0 mm - 191 W/m² -
1788619075 20.56° C 46% 1015.6 hPa 0 mm - 74 W/m² -
1788618773 21.67° C 45% 1015.5 hPa 0 mm - 58 W/m² -
1788618471 21.67° C 44% 1015.5 hPa 0 mm - 213 W/m² -
1788618169 21.67° C 44% 1015.5 hPa 0 mm - 230 W/m² -
1788617866 21.67° C 44% 1015.6 hPa 0 mm - 250 W/m² -
1788617564 21.67° C 44% 1015.6 hPa 0 mm - 267 W/m² -
1788616960 20.56° C 45% 1015.9 hPa 0 mm - 311 W/m² -
1788616658 21.67° C 46% 1015.7 hPa 0 mm - 105 W/m² -
1788616055 21.67° C 45% 1015.7 hPa 0 mm - 321 W/m² -

* Rain latest hour (hover to see other rain measurements)
** Current wind speed in m/s (hover to see current wind gust speed)